Regional Weather Roundup
Issued by NWS

Home | Current Version | Previous Version | Graphics & Text | Print | Product List | Glossary On
Versions: 1 2 3 4 5 6 7 8 9 10 11 12 13 14 15 16 17 18 19 20 21 22 23 24 25 26 27 28 29 30 31 32 33 34 35 36 37 38 39 40 41 42 43 44 45 46 47 48 49 50
000
ASUS43 KDTX 091701
RWRMI
MICHIGAN HOURLY REGIONAL WEATHER ROUNDUP
NATIONAL WEATHER SERVICE DETROIT/PONTIAC MI
1200 PM EST TUE FEB 09 2016

NOTE: "FAIR" INDICATES FEW OR NO CLOUDS BELOW 12,000 FEET WITH NO
SIGNIFICANT WEATHER AND/OR OBSTRUCTION TO VISIBILITY.

MIZ047>049-052>055-059>063-066>070-074>076-081>083-091800-
SOUTHEAST LOWER MICHIGAN

CITY           SKY/WX    TMP DP  RH WIND       PRES   REMARKS
ADRIAN         CLOUDY    28  23  81 NW15G21   29.63R WCI  16
ALMA           CLOUDY    28  23  80 NW10G20   29.63S WCI  19
ANN ARBOR      LGT SNOW  29  25  85 NW10      29.60S FOG     WCI  20
BAD AXE        LGT SNOW  28  26  91 NW10      29.52S VSB 1   WCI  19
CARO           CLOUDY    27  25  93 W12       29.55S VSB 3/4 WCI  16
DETROIT CITY   LGT SNOW  30  24  78 W10G21    29.58R WCI  21
DETROIT        LGT SNOW  30  25  81 W16G24    29.60R WCI  19
FLINT          LGT SNOW  28  22  78 W17       29.59S WCI  16
GROSSE ILE     LGT SNOW  30  27  86 W12       29.58S WCI  21
HILLSDALE      CLOUDY    26  22  85 NW17      29.61S WCI  13
HOWELL         LGT SNOW  26  23  87 W15       29.60S WCI  14

CITY           SKY/WX    TMP DP  RH WIND       PRES   REMARKS
JACKSON        CLOUDY    26  20  77 W14       29.62S WCI  14
LAMBERTVILLE   LGT SNOW  31  27  88 NW9       29.62S WCI  22
LANSING        CLOUDY    26  20  77 NW10G24   29.64R WCI  16
LAPEER         LGT SNOW  27  24  91 W9G21     29.56S VSB 1   WCI  17
MASON          CLOUDY    26  21  83 NW14      29.63S WCI  14
MONROE         PTSUNNY   32  26  80 NW13G18   29.60S WCI  22
MT. CLEMENS    LGT SNOW  29  26  88 W14       29.55R VSB 7/8 WCI  18
PONTIAC        LGT SNOW  27  23  85 W17       29.56R VSB 3/4 WCI  14
PORT HOPE        N/A     29  28  96 NW21G32   29.48S WCI  16
PORT HURON     LGT SNOW  28  27  93 W6        29.54R WCI  22
TRI CITIES     SNOW      29  24  82 W14       29.59S VSB 1/2 WCI  18
MIDLAND        LGT SNOW  28  24  85 W15       29.59S WCI  16
TROY           CLOUDY    31  27  84 W10G21    29.59R HAZE    WCI  22
SAGINAW HB     LGT SNOW  28  27  93 W14       29.58S VSB 3/4 WCI  17
$$
MIZ043>046-050>051-056>058-064>065-071>073-077>080-091800-
SOUTHWEST LOWER MICHIGAN

CITY           SKY/WX    TMP DP  RH WIND       PRES   REMARKS
BATTLE CREEK   CLOUDY    25  18  74 NW15      29.66S WCI  13
BENTON HARBOR  LGT SNOW  26  19  74 NW15G23   29.75S WCI  14
BIG RAPIDS     CLOUDY    25  22  91 NW10      29.64R WCI  15
COLDWATER      CLOUDY    27  20  75 NW14G20   29.66S WCI  16
FREMONT        CLOUDY    25  20  79 NW15G21   29.69R WCI  13
HOLLAND        FLURRIES  27  20  75 NW13G22   29.72R WCI  16
GRAND RAPIDS   FLURRIES  26  19  74 NW17      29.68S WCI  13
IONIA          CLOUDY    27  20  75 W16       29.64S WCI  14
KALAMAZOO      CLOUDY    27  19  72 NW20G25   29.68R WCI  13
LUDINGTON      LGT SNOW  23  19  84 N13G22    29.73R WCI  12
MARSHALL       CLOUDY    26  20  77 W13G18    29.65R WCI  15
MOUNT PLEASANT CLOUDY    28  21  74 NW12G18   29.61S WCI  18
MUSKEGON       CLOUDY    27  16  63 NW14G24   29.72R WCI  16
SOUTH HAVEN    LGT SNOW  26  21  79 NW13G21   29.74R WCI  15
$$
MIZ016>042-091800-
NORTHERN LOWER MICHIGAN

CITY           SKY/WX    TMP DP  RH WIND       PRES   REMARKS
ALPENA         FLURRIES  29  23  78 NW9G20    29.57R WCI  20
BEAVER ISLAND  CLOUDY    24  21  88 N12G20    29.66F WCI  13
BELLAIRE       FLURRIES  26  21  81 N7        29.67R WCI  19
CADILLAC       CLOUDY    23  18  82 NW13G21   29.61S WCI  11
CHARLEVOIX     LGT SNOW  26  22  87 NW13G20   29.68S WCI  15
FRANKFORT      LGT SNOW  24  19  79 N10G16    29.71S WCI  14
GAYLORD        CLOUDY    25  19  78 NW13G21   29.58R WCI  14
GRAYLING       LGT SNOW  25  19  78 NW12G22   29.60S WCI  14
HARBOR SPRINGS LGT SNOW  26  21  81 NW9G17    29.63S WCI  17
HOUGHTON LAKE  FLURRIES  25  19  78 NW15G24   29.60R WCI  13
MANISTEE       CLOUDY    25  18  74 N15G21    29.71S WCI  12
OSCODA         LGT SNOW  28  25  89 NW20      29.53S WCI  14
PELLSTON       CLOUDY    24  20  84 NW16      29.63R WCI  11
ROGERS CITY    LGT SNOW  29  25  88 NW12G20   29.59S WCI  19
TRAVERSE CITY  FLURRIES  26  18  71 NW15G24   29.67R WCI  14
$$
MIZ007>008-015-091800-
EASTERN UPPER MICHIGAN

CITY           SKY/WX    TMP DP  RH WIND       PRES   REMARKS
KINROSS        CLOUDY    27  25  93 N10       29.60R WCI  17
MACKINAC ISLAN LGT SNOW  25  24  99 NW9G18    29.61S VSB 3/4 WCI  15
NEWBERRY       CLOUDY    20  15  82 N16G26    29.65S HAZE    WCI   6
S. S. MARIE    CLOUDY    28  19  69 N8        29.61R WCI  20
$$
MIZ004>006-011>014-085-091800-
CENTRAL UPPER MICHIGAN

CITY           SKY/WX    TMP DP  RH WIND       PRES   REMARKS
MANISTIQUE     FLURRIES  22  14  71 NW18G25   29.69R WCI   8
ESCANABA       CLOUDY    19  10  68 NW10G18   29.76S WCI   8
MENOMINEE      CLOUDY    18   3  53 N12       29.79S WCI   5
SAWYER-GWINN   LGT SNOW  14  10  85 N16       29.74R VSB 3/4 WCI  -2
$$
MIZ001>003-009>011-084-091800-
WESTERN UPPER MICHIGAN

CITY           SKY/WX    TMP DP  RH WIND       PRES   REMARKS
IRON MOUNTAIN  LGT SNOW  13   4  67 NW21G29   29.78R WCI  -5
HOUGHTON       SNOW      10   5  80 N21G30    29.87R VSB 1/2 WCI  -9
COPPER HARBOR    N/A     16  13  88 NE29G41   29.86R WCI  -4
IRONWOOD       CLOUDY    10   7  85 N14G21    29.91S WCI  -5
$$

ABBREVIATIONS USED IN REMARKS
   TC - TEMPERATURE IN CELSIUS
  WCI - WIND CHILL INDEX
   HX - HEAT INDEX
  VSB - VISIBILITY




USA.gov is the U.S. government's official web portal to all federal, state and local government web resources and services.